Weather History for KOTM - November, 2011

Change the Weather History Date:

Thursday, November 17, 2011

  Actual Average Record
Temperature  
Mean Temperature 33 °F 38 °F  
Max Temperature 46 °F 48 °F 78 °F (1941)
Min Temperature 19 °F 29 °F -1 °F (1959)
Degree Days  
Heating Degree Days 32 26  
Month to date heating degree days 361 379  
Since 1 July heating degree days 864 903  
Cooling Degree Days 0 0  
Month to date cooling degree days 0 0  
Year to date cooling degree days 1111 938  
Moisture  
Dew Point 15 °F    
Average Humidity 47    
Maximum Humidity 68    
Minimum Humidity 26    
Precipitation  
Precipitation 0.00 in 0.07 in 1.89 in (1928)
Month to date precipitation 2.67 1.45  
Year to date precipitation 30.91 34.77  
Sea Level Pressure  
Sea Level Pressure 30.22 in    
Wind  
Wind Speed 9 mph (SW)    
Max Wind Speed 22 mph    
Max Gust Speed 28 mph    
Visibility 10 miles    
Events Snow    
T = Trace of Precipitation, MM = Missing Value Source: NWS Daily Summary

Daily Weather History Graph

Daily Weather History Graph

Search for Another Location

Airport or City:

Trip Planner

Search our weather history database for the weather conditions in past years. The results will help you decide how hot, cold, wet, or windy it might be!

Date:

Astronomy

Nov. 17, 2011 Rise Set
Actual Time 6:59 AM CST 4:49 PM CST
Civil Twilight 6:29 AM CST 5:19 PM CST
Nautical Twilight 5:56 AM CST 5:52 PM CST
Astronomical Twilight 5:23 AM CST 6:25 PM CST
Moon 11:11 PM CST (11/17) 12:07 PM CST (11/17)
Length of Visible Light 10h 49m
Length of Day
9h 49m
Waning Gibbous, 59% of the Moon is Illuminated
Nov 17
Waning Gibbous
Nov 18
Last Quarter
Nov 25
New
Dec 2
First Quarter
Dec 10
Full

Hourly Weather History & Observations

Time (CST) Temp. Windchill Dew Point Humidity Pressure Visibility Wind Dir Wind Speed Gust Speed Precip Events Conditions
12:53 AM 23.0 °F 15.8 °F 12.0 °F 63% 30.27 in 9.0 mi West 5.8 mph - 0.00 in Snow Light Snow
1:53 AM 23.0 °F 15.8 °F 12.2 °F 63% 30.25 in 9.0 mi West 5.8 mph - N/A   Clear
2:53 AM 21.9 °F 13.4 °F 12.0 °F 66% 30.28 in 10.0 mi West 6.9 mph - 0.00 in   Clear
3:53 AM 21.0 °F 11.4 °F 12.0 °F 68% 30.28 in 9.0 mi West 8.1 mph - 0.00 in Snow Light Snow
4:53 AM 21.0 °F 12.4 °F 10.9 °F 65% 30.29 in 9.0 mi West 6.9 mph - 0.00 in Snow Light Snow
5:53 AM 19.9 °F 11.1 °F 10.9 °F 68% 30.30 in 10.0 mi West 6.9 mph - 0.00 in   Clear
6:53 AM 19.9 °F 12.1 °F 10.9 °F 68% 30.30 in 10.0 mi West 5.8 mph - N/A   Clear
7:53 AM 23.0 °F 18.4 °F 14.0 °F 68% 30.32 in 10.0 mi WSW 3.5 mph - N/A   Clear
8:53 AM 27.0 °F 19.5 °F 15.1 °F 61% 30.32 in 10.0 mi WSW 6.9 mph - N/A   Clear
9:53 AM 34.0 °F 27.2 °F 15.1 °F 46% 30.31 in 10.0 mi WSW 8.1 mph - N/A   Clear
10:53 AM 37.0 °F 30.4 °F 15.1 °F 41% 30.31 in 9.0 mi WSW 9.2 mph - 0.00 in Snow Light Snow
11:53 AM 41.0 °F 35.2 °F 16.0 °F 36% 30.26 in 10.0 mi WSW 9.2 mph - 0.00 in   Clear
12:53 PM 44.1 °F 37.7 °F 16.0 °F 32% 30.23 in 10.0 mi WSW 12.7 mph - N/A   Clear
1:53 PM 46.0 °F 39.6 °F 14.0 °F 28% 30.21 in 10.0 mi WSW 15.0 mph - N/A   Clear
2:53 PM 46.0 °F 40.2 °F 14.0 °F 28% 30.19 in 10.0 mi WSW 12.7 mph - N/A   Clear
3:53 PM 44.1 °F 38.6 °F 14.0 °F 30% 30.18 in 10.0 mi WSW 10.4 mph - N/A   Clear
4:53 PM 39.9 °F 33.9 °F 15.1 °F 36% 30.18 in 10.0 mi SSW 9.2 mph - N/A   Clear
5:53 PM 33.1 °F 26.9 °F 15.1 °F 48% 30.17 in 10.0 mi South 6.9 mph - N/A   Clear
6:53 PM 34.0 °F 26.6 °F 16.0 °F 48% 30.16 in 10.0 mi South 9.2 mph - N/A   Clear
7:53 PM 35.1 °F 27.4 °F 17.1 °F 48% 30.14 in 10.0 mi South 10.4 mph - N/A   Clear
8:53 PM 34.0 °F 25.5 °F 19.0 °F 54% 30.12 in 10.0 mi South 11.5 mph - N/A   Clear
9:53 PM 34.0 °F 25.5 °F 19.9 °F 56% 30.11 in 10.0 mi South 11.5 mph - N/A   Clear
10:53 PM 32.0 °F 24.2 °F 21.0 °F 64% 30.09 in 10.0 mi South 9.2 mph - N/A   Clear
11:53 PM 35.1 °F 26.9 °F 24.1 °F 64% 30.07 in 9.0 mi South 11.5 mph - 0.00 in Snow Light Snow